Weather History for Marion Regional, IL

Change the Weather History Date:

Thursday, January 17, 2013

  Actual Average Record
Temperature  
Mean Temperature 35 °F -  
Max Temperature 42 °F 37 °F 65 °F (1986)
Min Temperature 28 °F 20 °F -22 °F (1977)
Degree Days  
Heating Degree Days 30    
Moisture  
Dew Point 26 °F    
Average Humidity 74    
Maximum Humidity 86    
Minimum Humidity 65    
Precipitation  
Precipitation 0.00 in - - ()
Sea Level Pressure  
Sea Level Pressure 30.30 in    
Wind  
Wind Speed 3 mph (NNW)    
Max Wind Speed 17 mph    
Max Gust Speed -    
Visibility 13 miles    
Events      
Averages and records for this station are not official NWS values.
T = Trace of Precipitation, MM = Missing Value Source: NWS Daily Summary

Daily Weather History Graph

Daily Weather History Graph

Search for Another Location

Airport:

Trip Planner

Search our weather history database for the weather conditions in past years. The results will help you decide how hot, cold, wet, or windy it might be!

Date:

Astronomy

Jan. 17, 2013 Rise Set
Actual Time 7:09 AM CST 5:03 PM CST
Civil Twilight 6:40 AM CST 5:32 PM CST
Nautical Twilight 6:08 AM CST 6:04 PM CST
Astronomical Twilight 5:37 AM CST 6:35 PM CST
Moon 10:24 AM CST (1/17) 11:46 PM CST (1/17)
Length of Visible Light 10h 51m
Length of Day
9h 54m
Waxing Crescent, 38% of the Moon is Illuminated
Jan 17
Waxing Crescent
Jan 18
First Quarter
Jan 26
Full
Feb 3
Last Quarter
Feb 10
New

Hourly Weather History & Observations

Time (CST) Temp. Windchill Dew Point Humidity Pressure Visibility Wind Dir Wind Speed Gust Speed Precip Events Conditions
12:15 AM 32.0 °F - 23.0 °F 69% 30.15 in 10.0 mi Calm Calm - N/A   Mostly Cloudy
12:35 AM 32.0 °F - 24.8 °F 75% 30.16 in 10.0 mi Calm Calm - N/A   Overcast
12:55 AM 32.0 °F - 26.6 °F 80% 30.17 in 10.0 mi Calm Calm - N/A   Overcast
1:15 AM 32.0 °F - 26.6 °F 80% 30.15 in 10.0 mi Calm Calm - N/A   Overcast
1:35 AM 32.0 °F - 24.8 °F 75% 30.17 in 10.0 mi Calm Calm - N/A   Scattered Clouds
1:55 AM 30.2 °F - 26.6 °F 86% 30.16 in 10.0 mi Calm Calm - N/A   Clear
2:15 AM 32.0 °F 28.7 °F 24.8 °F 75% 30.17 in 10.0 mi West 3.5 mph - N/A   Mostly Cloudy
2:35 AM 32.0 °F - 23.0 °F 69% 30.16 in 10.0 mi Calm Calm - N/A   Scattered Clouds
2:55 AM 30.2 °F - 24.8 °F 80% 30.17 in 10.0 mi Calm Calm - N/A   Clear
3:15 AM 30.2 °F - 24.8 °F 80% 30.17 in 10.0 mi Calm Calm - N/A   Clear
3:35 AM 30.2 °F - 24.8 °F 80% 30.18 in 10.0 mi Calm Calm - N/A   Clear
3:55 AM 30.2 °F - 24.8 °F 80% 30.18 in 10.0 mi Calm Calm - N/A   Clear
4:15 AM 28.4 °F - 24.8 °F 86% 30.17 in 10.0 mi Calm Calm - N/A   Clear
4:35 AM 28.4 °F - 24.8 °F 86% 30.18 in 10.0 mi Calm Calm - N/A   Clear
4:55 AM 30.2 °F - 24.8 °F 80% 30.17 in 10.0 mi Calm Calm - N/A   Clear
5:15 AM 28.4 °F 24.6 °F 24.8 °F 86% 30.17 in 10.0 mi NNW 3.5 mph - N/A   Scattered Clouds
5:35 AM 32.0 °F 28.7 °F 24.8 °F 75% 30.17 in 10.0 mi NNW 3.5 mph - N/A   Scattered Clouds
6:51 AM 30.2 °F 24.3 °F 24.8 °F 80% 30.20 in 15.0 mi North 5.8 mph - N/A   Mostly Cloudy
7:54 AM 33.8 °F 29.6 °F 28.4 °F 81% 30.24 in 20.0 mi South 4.6 mph - N/A   Mostly Cloudy
8:52 AM 37.4 °F 30.8 °F 28.4 °F 70% 30.26 in 20.0 mi North 9.2 mph - N/A   Scattered Clouds
9:54 AM 39.2 °F 32.0 °F 30.2 °F 70% 30.28 in 20.0 mi North 11.5 mph - N/A   Clear
10:55 AM 42.8 °F 35.4 °F 32.0 °F 66% 30.28 in 20.0 mi North 15.0 mph - N/A   Partly Cloudy
11:54 AM 42.8 °F 36.6 °F 33.8 °F 70% 30.27 in 20.0 mi North 11.5 mph - N/A   Overcast
12:54 PM 42.8 °F 34.8 °F 33.8 °F 70% 30.27 in 15.0 mi NNW 17.3 mph - N/A   Overcast
1:55 PM 41.0 °F 32.5 °F 33.8 °F 76% 30.28 in 20.0 mi NNW 17.3 mph - N/A   Mostly Cloudy
2:55 PM 39.2 °F 30.2 °F 30.2 °F 70% 30.31 in 20.0 mi North 17.3 mph - N/A   Scattered Clouds
3:55 PM 39.2 °F 30.2 °F 28.4 °F 65% 30.34 in 20.0 mi NNW 17.3 mph - N/A   Scattered Clouds
4:55 PM 37.4 °F 28.9 °F 26.6 °F 65% 30.37 in 20.0 mi North 13.8 mph - N/A   Clear
5:55 PM 37.4 °F 29.8 °F 26.6 °F 65% 30.41 in 20.0 mi NNW 11.5 mph - N/A   Clear
6:55 PM 35.6 °F 31.7 °F 24.8 °F 65% 30.44 in 10.0 mi NNW 4.6 mph - N/A   Clear
7:15 PM 35.6 °F 31.7 °F 24.8 °F 65% 30.45 in 10.0 mi NNW 4.6 mph - N/A   Clear
7:35 PM 33.8 °F 28.6 °F 24.8 °F 70% 30.46 in 10.0 mi NNW 5.8 mph - N/A   Clear
7:55 PM 33.8 °F 28.6 °F 24.8 °F 70% 30.47 in 10.0 mi NNW 5.8 mph - N/A   Clear
8:15 PM 33.8 °F 28.6 °F 24.8 °F 70% 30.48 in 10.0 mi NNW 5.8 mph - N/A   Clear
8:35 PM 33.8 °F 30.8 °F 24.8 °F 70% 30.48 in 10.0 mi NNW 3.5 mph - N/A   Clear
8:55 PM 32.0 °F 27.5 °F 24.8 °F 75% 30.49 in 10.0 mi NNW 4.6 mph - N/A   Clear
9:15 PM 32.0 °F 28.7 °F 24.8 °F 75% 30.49 in 10.0 mi NNW 3.5 mph - N/A   Clear
9:35 PM 32.0 °F - 24.8 °F 75% 30.49 in 10.0 mi Calm Calm - N/A   Clear
9:55 PM 32.0 °F - 23.0 °F 69% 30.50 in 10.0 mi Calm Calm - N/A   Clear
11:15 PM 32.0 °F 28.7 °F 23.0 °F 69% 30.51 in 10.0 mi NW 3.5 mph - N/A   Clear
11:35 PM 32.0 °F 28.7 °F 23.0 °F 69% 30.52 in 10.0 mi NNW 3.5 mph - N/A   Clear
11:55 PM 30.2 °F - 23.0 °F 75% 30.51 in 10.0 mi Calm Calm - N/A   Clear